K3ZED-2 Weather Reports


Display with metric or nautical units.
time (UTC)temp
F
wind
direction
speed
MPH
gust
MPH
rain 1hr
in
rain 24hr
in
rain mn
in
humidity
%
barometer
mb
20260505034528 55 220 0.0 3.0 0.00 0.00 0.00 74 1010.9
20260505033035 54 226 0.0 1.0 0.00 0.00 0.00 74 1011.0
20260505031527 54 181 0.0 1.0 0.00 0.00 0.00 74 1011.1
20260505030027 55 201 0.0 0.0 0.00 0.00 0.00 73 1011.0
20260505024549 55 201 0.0 0.0 0.00 0.00 0.00 72 1011.0
20260505023035 56 162 0.0 1.0 0.00 0.00 0.00 73 1010.9
20260505021542 57 199 0.0 0.0 0.00 0.00 0.00 72 1011.1
20260505020024 57 199 0.0 0.0 0.00 0.00 0.00 68 1011.2
20260505014527 58 200 0.0 0.0 0.00 0.00 0.00 66 1011.2
20260505013024 59 216 0.0 0.0 0.00 0.00 0.00 65 1011.0
20260505011527 59 226 0.0 1.0 0.00 0.00 0.00 65 1010.8
20260505010022 60 212 0.0 1.0 0.00 0.00 0.00 63 1010.7
20260505004535 61 230 0.0 0.0 0.00 0.00 0.00 61 1010.6
20260505003022 62 208 0.0 2.0 0.00 0.00 0.00 58 1010.5
20260505001521 64 203 0.0 1.0 0.00 0.00 0.00 55 1010.4
20260505000021 65 213 0.0 1.0 0.00 0.00 0.00 52 1010.3
20260504234521 66 208 0.0 6.0 0.00 0.00 0.00 50 1010.3
20260504233020 67 215 0.0 8.0 0.00 0.00 0.00 49 1010.4
20260504231518 68 206 0.0 14.0 0.00 0.00 0.00 47 1010.4
20260504230018 69 195 0.0 8.0 0.00 0.00 0.00 46 1010.3
20260504224517 71 199 1.0 11.0 0.00 0.00 0.00 44 1010.4
20260504223016 71 214 0.0 10.0 0.00 0.00 0.00 45 1010.5
20260504221513 72 207 3.0 16.0 0.00 0.00 0.00 43 1010.5
20260504220018 72 212 0.0 14.0 0.00 0.00 0.00 46 1010.5
20260504214510 72 210 0.0 15.0 0.00 0.00 0.00 45 1010.5
20260504213010 72 197 4.0 15.0 0.00 0.00 0.00 44 1010.6
20260504211509 72 208 10.0 23.0 0.00 0.00 0.00 41 1010.5
20260504210008 72 187 5.0 23.0 0.00 0.00 0.00 42 1010.5
20260504204515 72 211 1.0 19.0 0.00 0.00 0.00 43 1010.6
20260504203106 72 199 8.0 25.0 0.00 0.00 0.00 41 1010.6
20260504201503 72 219 7.0 24.0 0.00 0.00 0.00 41 1010.8
20260504200002 72 219 4.0 19.0 0.00 0.00 0.00 43 1011.0
20260504194559 72 216 6.0 21.0 0.00 0.00 0.00 42 1011.3
20260504193056 72 197 2.0 14.0 0.00 0.00 0.00 44 1011.6
20260504191554 71 203 7.0 23.0 0.00 0.00 0.00 44 1011.8
20260504190051 72 239 5.0 12.0 0.00 0.00 0.00 45 1012.0
20260504184556 71 221 8.0 20.0 0.00 0.00 0.00 43 1012.1
20260504183048 71 210 2.0 15.0 0.00 0.00 0.00 42 1012.2
20260504181547 71 187 0.0 12.0 0.00 0.00 0.00 46 1012.4
20260504180044 71 222 2.0 14.0 0.00 0.00 0.00 45 1012.6
20260504174545 71 208 2.0 15.0 0.00 0.00 0.00 47 1012.7
20260504173039 70 183 1.0 10.0 0.00 0.00 0.00 44 1013.0
20260504171537 70 205 0.0 11.0 0.00 0.00 0.00 46 1013.1
20260504081506 37 222 0.0 0.0 0.00 0.00 0.00 83 1015.9
20260504044547 40 218 0.0 3.0 0.00 0.00 0.00 78 1015.9
20260504043052 40 237 0.0 2.0 0.00 0.00 0.00 79 1015.9
20260504041541 40 247 0.0 2.0 0.00 0.00 0.00 80 1015.6
20260504040039 40 227 0.0 0.0 0.00 0.00 0.00 80 1015.5